[[{"header":{"parameterUnit":"m.s-1","parameterCategory":1,"la1":30.2991,"la2":30.254,"lo1":-89.0895,"lo2":-89.0444,"dy":0.0017,"dx":0.0017,"nx":28,"ny":28,"refTime":"2024-05-15T09:00:00:Z","depth":0,"parameterNumber":2,"parameterNumberName":"U-component_of_WINDS"},"data":[0,0,0,0,0,0,0,0,0,0,0,0,0,0,0,0,0,0,0,0,0,0,0,0,0,0,0,0,0,0,0,0,0,0,0,0,0,0,0,0,0,0,0,0,0,0,0,0,0,0,0,0,0,0,0,0,0,0,3.5799,3.5801,0,3.5944,3.5946,3.5947,3.5857,3.5853,3.5849,3.5845,3.6,3.6007,3.6015,0,0,0,0,0,0,0,0,0,0,0,0,0,3.5451,3.5458,3.5799,3.5801,3.5803,3.5944,3.5946,3.5948,3.5858,3.5853,3.5848,3.5843,3.5997,3.6006,3.6016,0,0,0,0,0,0,0,0,0,0,0,0,0,3.56,3.546,3.5799,3.5775,3.5774,3.5943,3.5946,3.5948,3.5859,3.5853,3.5846,3.584,3.5994,3.6006,3.6018,3.622,0,0,3.6055,3.606,0,0,0,0,0,0,0,0,3.5591,3.5613,3.5777,3.5777,3.5776,3.5876,3.5879,3.604,3.5861,3.5827,3.5845,3.5837,3.5964,3.5978,3.602,3.6228,3.6234,3.6056,3.6063,3.6068,3.6072,0,0,0,0,0,0,0,3.5581,3.5606,3.5857,3.5779,3.5779,3.5759,3.5773,3.5909,3.593,3.583,3.5823,3.5841,3.5963,3.6008,3.6023,3.6236,3.6055,3.6066,3.6074,3.6078,3.6618,3.6625,0,0,0,0,0,0,3.5572,3.5598,3.5852,3.5861,3.5666,3.577,3.5786,3.5851,3.5928,3.5934,3.5847,3.5837,3.5991,3.6009,3.6028,3.627,3.6068,3.608,3.6087,3.6611,3.662,3.6627,0,0,0,0,0,0,3.5565,3.5596,3.5846,3.5728,3.5758,3.5783,3.5856,3.5857,3.5902,3.5941,3.5945,3.5889,3.5986,3.6011,3.6173,3.6274,3.6085,3.6096,3.6603,3.6614,3.6624,3.6757,0,0,0,0,0,0,3.5555,3.5593,3.567,3.573,3.5765,3.5988,3.5863,3.5864,3.5922,3.5911,3.5982,3.5987,3.5983,3.6155,3.6185,3.6288,3.6106,3.6594,3.6608,3.662,3.6744,3.6771,3.6794,0,0,0,0,0,3.5543,3.5703,3.5674,3.5705,3.586,3.5993,3.6013,3.6003,3.5931,3.6008,3.6033,3.5985,3.6258,3.6172,3.6205,3.6313,3.6587,3.6604,3.6619,3.6732,3.6765,3.6793,0,0,0,0,0,0,3.5656,3.571,3.5679,3.5862,3.5924,3.5978,3.6075,3.6039,3.6124,3.611,3.6096,3.6112,3.6282,3.6313,3.6217,3.6513,3.6412,3.6435,3.6486,3.6518,3.6543,3.6532,3.6116,0,0,0,0,0,3.5702,3.5803,3.5846,3.6004,3.6036,3.6051,3.6109,3.6095,3.6159,3.6185,3.6222,3.6288,3.6388,3.6455,3.655,3.6747,3.6762,3.6838,3.6863,3.6884,3.6904,3.7011,3.7046,3.668,3.6679,3.6679,0,0,3.5798,3.584,3.5906,3.6028,3.6074,3.6181,3.6073,3.6192,3.6272,3.6204,3.6358,3.6388,3.646,3.6641,3.6723,3.6673,3.7008,3.6904,3.692,3.693,3.7031,3.7066,3.7097,3.669,3.6688,3.6687,0,0,3.6029,3.6071,3.6207,3.6254,3.6324,3.6333,3.6366,3.6426,3.6442,3.6596,3.6547,3.6643,3.6817,3.687,3.692,3.717,3.7129,3.7202,3.7334,3.7439,3.7468,3.7493,3.7583,3.7615,3.7222,3.7222,3.7223,0,3.6141,3.6299,3.6282,3.6404,3.6459,3.64,3.6539,3.6587,3.6685,3.6726,3.6668,3.6884,3.6928,3.7121,3.7182,3.7224,3.7262,3.7194,3.7464,3.749,3.7513,3.7599,3.7633,3.7231,3.723,3.7229,3.7228,0,3.6433,3.6543,3.6645,3.6739,3.6806,3.6936,3.694,3.701,3.6991,3.7007,3.7165,3.7216,3.732,3.7365,3.7348,3.7555,3.7522,3.7465,3.7363,3.7557,3.7637,3.767,3.7243,3.724,3.7237,3.7235,0,0,3.674,3.6821,3.6859,3.6901,3.6974,3.706,3.7187,3.7286,3.7347,3.7417,3.7525,3.7672,3.7619,3.7676,3.7665,3.7757,3.7952,3.7688,3.769,3.7736,3.8184,3.8227,3.8265,3.7925,3.7931,3.7936,3.8178,0,3.6975,3.7195,3.7183,3.7391,3.7493,3.7438,3.7549,3.7607,3.7624,3.7715,3.7735,3.784,3.7762,3.7796,3.7884,3.791,3.8042,3.7892,3.8027,3.8032,3.801,3.8307,3.8353,3.8579,3.8209,3.8215,3.8218,0,3.7279,3.7356,3.7573,3.763,3.7672,3.7772,3.7862,3.7949,3.8014,3.802,3.8083,3.8057,3.8188,3.8081,3.8262,3.816,3.8214,3.8235,3.8244,3.8257,3.8137,3.8328,3.865,3.8684,3.8268,3.8264,3.826,0,3.7481,3.764,3.779,3.7828,3.7898,3.7969,3.8002,3.806,3.812,3.82,3.8239,3.8333,3.8386,3.846,3.8461,3.8383,3.8644,3.8537,3.8654,3.8654,3.8712,3.8709,3.9048,3.8747,3.8746,3.8746,3.8745,0,3.7745,3.788,3.7882,3.7974,3.8124,3.811,3.826,3.8285,3.8337,3.8435,3.8394,3.8488,3.8482,3.8577,3.8579,3.8729,3.8753,3.8762,3.8761,3.8766,3.8765,3.8802,3.8787,3.8755,3.8753,3.8751,3.8749,0,3.7997,3.8003,3.8163,3.8215,3.8232,3.834,3.8386,3.8474,3.8487,3.8612,3.864,3.8662,3.8772,3.8779,3.8907,3.8908,3.9089,3.9071,3.9067,3.9064,3.918,3.9169,3.9556,3.9606,3.9272,3.9275,3.9278,0,3.8165,3.8267,3.833,3.8391,3.8427,3.8527,3.8588,3.8579,3.8644,3.8725,3.8804,3.8909,3.8992,3.917,3.9199,3.9296,3.928,3.9409,3.9294,3.9296,3.9282,3.9276,3.9286,3.9431,3.9435,3.9438,3.944,0,3.8463,3.8461,3.8548,3.8638,3.8711,3.8781,3.8847,3.89,3.8899,3.8975,3.9084,3.9149,3.9278,3.9383,3.9478,3.9514,3.9478,3.9476,3.9508,3.9514,3.9508,3.9513,3.9128,3.9467,3.9464,3.9462,3.9461,3.946,3.8678,3.8766,3.8824,3.8923,3.8971,3.9033,3.9118,3.9141,3.9232,3.9335,3.9324,3.9447,3.9509,3.9632,3.9675,3.9772,3.9729,3.9775,3.9787,3.9799,3.9811,3.9492,3.9789,3.9789,3.9788,3.9787,3.9787,0,3.8974,3.9008,3.9099,3.9191,3.927,3.9226,3.9297,3.9366,3.9473,3.9533,3.9615,3.9742,3.9844,3.988,3.9979,4.005,4.0036,4.0076,4.0071,4.008,3.9844,3.9806,4.0086,4.0086,4.0086,4.0085,4.0085,4.0085,3.9138,3.9284,3.9289,3.9459,3.9492,3.961,3.9654,3.9711,3.9759,3.9901,3.9985,4.0006,4.0057,4.016,4.0252,4.026,4.0298,4.0346,4.0348,4.0127,4.0097,4.0068,4.0032,4.0355,4.0355,4.0575,4.0577,4.0579]},{"header":{"parameterUnit":"m.s-1","parameterCategory":1,"la1":30.2991,"la2":30.254,"lo1":-89.0895,"lo2":-89.0444,"dy":0.0017,"dx":0.0017,"nx":28,"ny":28,"refTime":"2024-05-15T09:00:00:Z","depth":0,"parameterNumber":3,"parameterNumberName":"V-component_of_WINDS"},"data":[0,0,0,0,0,0,0,0,0,0,0,0,0,0,0,0,0,0,0,0,0,0,0,0,0,0,0,0,0,0,0,0,0,0,0,0,0,0,0,0,0,0,0,0,0,0,0,0,0,0,0,0,0,0,0,0,0,0,1.2532,1.2532,0,1.2579,1.258,1.258,1.2539,1.2537,1.2536,1.2534,1.2586,1.2589,1.2592,0,0,0,0,0,0,0,0,0,0,0,0,0,1.2406,1.2409,1.2531,1.2532,1.2533,1.2579,1.258,1.2581,1.254,1.2537,1.2535,1.2533,1.2585,1.2589,1.2592,0,0,0,0,0,0,0,0,0,0,0,0,0,1.2458,1.241,1.2531,1.2518,1.2517,1.2579,1.258,1.2581,1.254,1.2537,1.2535,1.2532,1.2584,1.2588,1.2593,1.2672,0,0,1.2606,1.2608,0,0,0,0,0,0,0,0,1.2455,1.2463,1.2519,1.2519,1.2518,1.2551,1.2555,1.2611,1.2541,1.2531,1.2534,1.2531,1.2577,1.2581,1.2596,1.2674,1.2676,1.2607,1.2609,1.2611,1.2613,0,0,0,0,0,0,0,1.2452,1.2461,1.255,1.252,1.2519,1.251,1.2514,1.2565,1.2568,1.2532,1.2529,1.2535,1.2576,1.2592,1.2597,1.2677,1.2607,1.2611,1.2613,1.2615,1.2822,1.2824,0,0,0,0,0,0,1.2449,1.2458,1.2549,1.2552,1.248,1.2514,1.2519,1.2543,1.2567,1.2568,1.2537,1.2533,1.2586,1.2592,1.2599,1.2693,1.2611,1.2615,1.2618,1.2819,1.2822,1.2825,0,0,0,0,0,0,1.2447,1.2458,1.2547,1.2504,1.2515,1.2519,1.2546,1.2545,1.2561,1.2571,1.2572,1.2553,1.2584,1.2592,1.2654,1.2694,1.2617,1.2622,1.2816,1.282,1.2824,1.2881,0,0,0,0,0,0,1.2443,1.2457,1.2487,1.2505,1.2517,1.2601,1.2548,1.2548,1.2569,1.2564,1.2586,1.2588,1.2582,1.2647,1.2658,1.2699,1.2625,1.2812,1.2818,1.2823,1.2876,1.2887,1.2896,0,0,0,0,0,1.2439,1.2502,1.2489,1.25,1.2554,1.2603,1.261,1.2602,1.2572,1.2602,1.2608,1.2587,1.2688,1.2654,1.2666,1.2708,1.281,1.2816,1.2822,1.2871,1.2885,1.2896,0,0,0,0,0,0,1.2489,1.2504,1.2489,1.256,1.258,1.2596,1.2634,1.2617,1.2647,1.2641,1.2631,1.2636,1.27,1.271,1.2672,1.2786,1.2744,1.2753,1.2777,1.279,1.28,1.2797,1.2629,0,0,0,0,0,1.2508,1.2546,1.2557,1.2618,1.2629,1.263,1.2651,1.2643,1.2664,1.2673,1.2683,1.2706,1.2742,1.2766,1.2801,1.2877,1.2881,1.2912,1.2922,1.2931,1.2939,1.298,1.2993,1.2846,1.2846,1.2846,0,0,1.2549,1.2561,1.2586,1.2629,1.2644,1.2683,1.2637,1.2682,1.2711,1.268,1.2738,1.2746,1.277,1.2839,1.287,1.285,1.298,1.2939,1.2945,1.2949,1.2987,1.3001,1.3014,1.2851,1.285,1.2849,0,0,1.2642,1.2656,1.2708,1.2723,1.2746,1.2746,1.2758,1.2776,1.2781,1.2838,1.2815,1.2851,1.2914,1.2932,1.2949,1.3049,1.303,1.306,1.3114,1.3154,1.3166,1.3176,1.3212,1.3225,1.3068,1.3068,1.3068,0,1.269,1.2748,1.2737,1.2782,1.2802,1.2774,1.2827,1.2843,1.2876,1.2891,1.2867,1.2945,1.2959,1.3032,1.3056,1.3071,1.3085,1.3058,1.3165,1.3175,1.3185,1.3218,1.3232,1.3072,1.3071,1.3071,1.3071,0,1.2805,1.2846,1.2885,1.2917,1.2941,1.299,1.2987,1.3013,1.3002,1.3005,1.3064,1.308,1.3116,1.3133,1.3124,1.3204,1.3191,1.3166,1.3124,1.3202,1.3234,1.3247,1.3077,1.3076,1.3075,1.3074,0,0,1.2933,1.2957,1.2971,1.2985,1.3008,1.304,1.3087,1.3122,1.3144,1.3168,1.3208,1.3262,1.3239,1.3259,1.3251,1.3286,1.3364,1.3257,1.3258,1.3277,1.3454,1.3472,1.3487,1.3351,1.3354,1.3356,1.3452,0,1.3027,1.3109,1.31,1.3179,1.3217,1.319,1.3232,1.3251,1.3254,1.3287,1.3291,1.3329,1.3296,1.3308,1.3341,1.3348,1.3399,1.334,1.3389,1.3391,1.3384,1.3504,1.3524,1.3614,1.3464,1.3466,1.3468,0,1.3149,1.3175,1.3258,1.3274,1.3289,1.3327,1.3358,1.339,1.341,1.341,1.3432,1.3418,1.3467,1.3423,1.349,1.345,1.3469,1.3475,1.3479,1.3483,1.3434,1.3512,1.3642,1.3656,1.3487,1.3485,1.3484,0,1.3233,1.329,1.3347,1.3359,1.338,1.3407,1.3417,1.3435,1.3456,1.3483,1.3497,1.353,1.3548,1.3574,1.357,1.3539,1.3638,1.3594,1.364,1.3641,1.3663,1.3662,1.3798,1.3675,1.3675,1.3675,1.3674,0,1.334,1.3392,1.3385,1.342,1.3476,1.3466,1.3522,1.3529,1.3545,1.3581,1.3561,1.3595,1.3587,1.3621,1.3618,1.3674,1.3683,1.3684,1.3683,1.3686,1.3686,1.3699,1.3693,1.3678,1.3677,1.3677,1.3676,0,1.3445,1.3442,1.3502,1.3516,1.3521,1.3562,1.3574,1.3607,1.3609,1.3654,1.3665,1.3667,1.3706,1.3704,1.3749,1.3747,1.3816,1.3807,1.3809,1.3807,1.3853,1.3849,1.4003,1.4023,1.3887,1.3888,1.3889,0,1.3513,1.3552,1.357,1.3592,1.3603,1.3639,1.366,1.3651,1.3675,1.3701,1.3731,1.3768,1.3797,1.3861,1.3867,1.3901,1.3893,1.3945,1.3898,1.39,1.3894,1.3892,1.3896,1.3954,1.3956,1.3957,1.3958,0,1.3635,1.3631,1.3662,1.3693,1.3719,1.3743,1.3765,1.3784,1.3777,1.3804,1.3844,1.3866,1.3911,1.3948,1.3981,1.3991,1.3974,1.3972,1.3985,1.3989,1.3988,1.3989,1.3834,1.3969,1.3968,1.3967,1.3967,1.3966,1.3723,1.3756,1.3774,1.3809,1.3824,1.3845,1.3876,1.3881,1.3913,1.3949,1.3941,1.3986,1.4005,1.4046,1.406,1.4095,1.4077,1.4095,1.4099,1.4104,1.4109,1.3982,1.4101,1.4101,1.41,1.41,1.41,0,1.3844,1.3853,1.3886,1.3916,1.3944,1.3924,1.3947,1.3972,1.4011,1.403,1.4059,1.4104,1.4139,1.4148,1.4183,1.4209,1.4202,1.4218,1.4216,1.4219,1.4124,1.411,1.4223,1.4223,1.4223,1.4223,1.4223,1.4223,1.391,1.3964,1.3963,1.4025,1.4034,1.4077,1.4092,1.4111,1.4126,1.4177,1.4206,1.4211,1.4226,1.4261,1.4294,1.4295,1.4309,1.4329,1.4327,1.4238,1.4226,1.4214,1.4201,1.4332,1.4332,1.442,1.4421,1.4421]}]]